Location: Bismarck
(46.7731°N, 100.8200°W)
Time: 04:17:04
(UTC-06:00)

ISS - Visible Passes

Search period start: 04 December 2016 00:00
Search period end: 14 December 2016 00:00
Orbit: 401 x 410 km, 51.6° (Epoch: 04 December)

Date Brightness Start Highest point End Pass type
(mag) Time Alt. Az. Time Alt. Az. Time Alt. Az.
04 Dec -2.9 19:01:42 10° WSW 19:04:42 59° NW 19:04:42 59° NW visible
05 Dec -3.4 18:09:42 10° WSW 18:13:00 88° SE 18:14:51 24° ENE visible
05 Dec -0.3 19:46:39 10° WNW 19:47:31 16° WNW 19:47:31 16° WNW visible
06 Dec -2.5 18:54:30 10° W 18:57:38 42° NNW 18:57:38 42° NNW visible
07 Dec -2.9 18:02:20 10° W 18:05:35 55° NNW 18:07:43 19° NE visible
07 Dec -0.5 19:39:27 10° WNW 19:40:23 16° WNW 19:40:23 16° WNW visible
08 Dec -2.3 18:47:17 10° WNW 18:50:21 34° N 18:50:26 34° N visible
09 Dec -2.5 17:55:05 10° W 17:58:13 39° N 18:00:30 16° NE visible
09 Dec -0.7 19:32:04 10° WNW 19:33:10 18° NW 19:33:10 18° NW visible
10 Dec -2.4 18:39:57 10° WNW 18:43:01 34° N 18:43:13 33° NNE visible
11 Dec -2.3 17:47:47 10° WNW 17:50:50 33° N 17:53:18 14° ENE visible
11 Dec -1.1 19:24:32 10° WNW 19:25:58 23° NW 19:25:58 23° NW visible
12 Dec -2.7 18:32:28 10° WNW 18:35:38 39° NNE 18:36:05 37° NE visible
13 Dec -2.4 17:40:22 10° WNW 17:43:26 34° N 17:46:16 12° ENE visible
13 Dec -1.8 19:16:54 10° WNW 19:18:56 34° WNW 19:18:56 34° WNW visible
